|
NORAD ID: 17844 Int'l Code: 1986-101K
Perigee: 876.0 km
Apogee: 902.0 km
Inclination: 82.5 °
Period: 102.6 minutes
Semi major axis: 7259 km
Launch date: December 18, 1986
Source: Commonwealth of Independent States (former USSR) (CIS)
Note: This is SATELLITE DEBRIS
Two Line Element Set (TLE):
1 17844U 86101K 13139.87288074 .00000826 00000-0 51748-3 0 974
2 17844 082.5066 286.4130 0017931 079.8319 071.6226 14.03459139347024
Source:
NASA's NSSDC Master Catalog entry for SL-14 DEB
|